Location: Kumla
(59.1265°N, 15.1401°E)
Time: 17:22:26
(UTC+01:00)

A-11 Canister half - Pass Details

Date: 08 December 2023
Orbit: 1512 x 1687 km, 47.2° (Epoch: 25 February)

Event Time Altitude Azimuth Distance (km) Brightness Sun altitude
Rises 01:48:25 0° 247° (WSW) 4,761 - -48.0°
Reaches altitude 10° 01:51:40 10° 240° (WSW) 3,802 - -47.7°
Maximum altitude 02:00:29 42° 175° (S) 2,208 - -46.9°
Exits shadow 02:06:17 22° 121° (ESE) 3,038 10.6 -46.4°
Drops below altitude 10° 02:09:36 10° 110° (ESE) 3,922 11.3 -46.1°
Sets 02:13:00 0° 104° (ESE) 4,925 12.0 -45.8°
